GW0064 Weather Reports


time (UTC)temp
C
wind
direction
speed
KPH
gust
KPH
rain 1hr
cm
rain 24hr
cm
rain mn
cm
humidity
%
barometer
mb
20260905224501 23 32 1.6 4.8 1.24 1.70 1.70 90 1012.6
20260905224006 23 32 0.0 3.2 1.57 1.70 1.70 90 1012.6
20260905223502 22 156 0.0 1.6 1.70 1.70 1.70 90 1012.5
20260905223002 22 156 0.0 4.8 1.70 1.70 1.70 90 1012.5
20260905222503 21 160 1.6 4.8 1.70 1.70 1.70 90 1012.7
20260905222001 21 234 0.0 3.2 1.70 1.70 1.70 90 1013.0
20260905221502 21 156 0.0 16.1 1.70 1.70 1.70 91 1013.0
20260905221003 21 71 11.3 16.1 1.60 1.60 1.60 91 1012.8
20260905220502 20 92 4.8 14.5 1.60 1.60 1.60 92 1012.5
20260905220005 20 264 3.2 54.7 1.60 1.60 1.60 92 1012.4
20260905215502 21 259 9.7 66.0 1.55 1.55 1.55 90 1013.2
20260905214001 29 44 14.5 27.4 0.08 0.08 0.08 65 1012.7
20260905213501 31 63 14.5 27.4 0.00 0.00 0.00 62 1012.4
20260905213001 31 337 6.4 16.1 0.00 0.00 0.00 65 1012.0
20260905212504 31 303 11.3 16.1 0.00 0.00 0.00 65 1011.8
20260905212002 31 275 9.7 17.7 0.00 0.00 0.00 66 1012.0
20260905211501 31 294 11.3 17.7 0.00 0.00 0.00 63 1012.3
20260905211001 31 321 9.7 12.9 0.00 0.00 0.00 65 1012.2
20260905210501 31 286 8.0 16.1 0.00 0.00 0.00 65 1012.1
20260905210005 31 290 8.0 16.1 0.00 0.00 0.00 67 1012.0
20260905205502 31 295 6.4 12.9 0.00 0.00 0.00 65 1012.0
20260905205001 31 270 9.7 12.9 0.00 0.00 0.00 65 1012.1
20260905204502 31 282 8.0 12.9 0.00 0.00 0.00 66 1012.2
20260905204002 31 328 1.6 14.5 0.00 0.00 0.00 66 1012.2
20260905203501 31 289 8.0 14.5 0.00 0.00 0.00 67 1012.3
20260905203001 31 283 9.7 12.9 0.00 0.00 0.00 65 1012.3
20260905202501 31 290 6.4 11.3 0.00 0.00 0.00 67 1012.4
20260905202001 31 294 8.0 11.3 0.00 0.00 0.00 67 1012.5
20260905201502 31 271 6.4 11.3 0.00 0.00 0.00 66 1012.6
20260905201003 31 296 6.4 9.7 0.00 0.00 0.00 65 1012.5
20260905200501 31 349 3.2 16.1 0.00 0.00 0.00 66 1012.6
20260905200003 31 290 3.2 16.1 0.00 0.00 0.00 65 1012.8
20260905195502 31 302 8.0 12.9 0.00 0.00 0.00 65 1012.8
20260905195004 31 344 6.4 14.5 0.00 0.00 0.00 67 1012.8
20260905194501 31 45 3.2 14.5 0.00 0.00 0.00 69 1012.7
20260905194001 30 286 9.7 14.5 0.00 0.00 0.00 67 1012.8
20260905193502 30 297 6.4 12.9 0.00 0.00 0.00 68 1013.0
20260905193001 31 281 8.0 12.9 0.00 0.00 0.00 66 1013.0
20260905192502 31 23 4.8 11.3 0.00 0.00 0.00 67 1013.1
20260905192002 31 302 4.8 9.7 0.00 0.00 0.00 65 1013.0
20260905191501 31 288 4.8 17.7 0.00 0.00 0.00 65 1013.0
20260905191002 31 281 11.3 17.7 0.00 0.00 0.00 65 1013.1
20260905190004 31 302 6.4 16.1 0.00 0.00 0.00 65 1013.2
20260905185002 31 280 11.3 17.7 0.00 0.00 0.00 63 1013.3
20260905184501 31 287 11.3 16.1 0.00 0.00 0.00 63 1013.4
20260905184001 31 251 6.4 19.3 0.00 0.00 0.00 62 1013.4
20260905183501 31 263 9.7 19.3 0.00 0.00 0.00 62 1013.5
20260905183002 31 272 8.0 17.7 0.00 0.00 0.00 63 1013.6
20260905182501 31 222 9.7 16.1 0.00 0.00 0.00 62 1013.5
20260905182002 30 268 9.7 19.3 0.00 0.00 0.00 62 1013.7
20260905180005 30 241 11.3 19.3 0.00 0.00 0.00 61 1013.8
20260905175502 30 220 12.9 16.1 0.00 0.00 0.00 61 1013.8
20260905175002 30 303 9.7 16.1 0.00 0.00 0.00 62 1013.8
20260905174502 30 232 9.7 16.1 0.00 0.00 0.00 63 1013.9
20260905174001 30 256 9.7 14.5 0.00 0.00 0.00 62 1013.9
20260905173501 30 167 4.8 16.1 0.00 0.00 0.00 64 1014.1
20260905173001 30 255 11.3 16.1 0.00 0.00 0.00 61 1014.2
20260905172503 29 238 9.7 12.9 0.00 0.00 0.00 64 1014.2
20260905172004 28 266 6.4 14.5 0.00 0.00 0.00 66 1014.3
20260905171501 28 293 8.0 16.1 0.00 0.00 0.00 65 1014.4
20260905171001 28 234 9.7 16.1 0.00 0.00 0.00 64 1014.5
20260905170501 28 193 8.0 14.5 0.00 0.00 0.00 65 1014.6
20260905170004 28 206 9.7 14.5 0.00 0.00 0.00 64 1014.7
20260905165501 28 162 8.0 14.5 0.00 0.00 0.00 64 1014.8
20260905165003 28 136 9.7 16.1 0.00 0.00 0.00 64 1014.8
20260905164501 28 210 9.7 16.1 0.00 0.00 0.00 65 1014.8
20260905164002 28 220 8.0 16.1 0.00 0.00 0.00 64 1014.9
20260905163501 28 229 8.0 16.1 0.00 0.00 0.00 65 1014.9
20260905163001 27 165 8.0 17.7 0.00 0.00 0.00 66 1014.9
20260905162501 27 185 9.7 17.7 0.00 0.00 0.00 67 1014.9
20260905162003 27 221 8.0 20.9 0.00 0.00 0.00 67 1014.9
20260905161502 27 204 9.7 20.9 0.00 0.00 0.00 66 1014.9
20260905161001 27 163 8.0 19.3 0.00 0.00 0.00 68 1014.9
20260905160501 27 256 11.3 19.3 0.00 0.00 0.00 67 1014.8
20260905160004 27 240 11.3 17.7 0.00 0.00 0.00 67 1014.8
20260905155503 27 236 8.0 17.7 0.00 0.00 0.00 67 1014.8
20260905155001 27 182 9.7 16.1 0.00 0.00 0.00 66 1014.7
20260905154501 27 196 8.0 19.3 0.00 0.00 0.00 67 1014.8
20260905154002 27 172 9.7 22.5 0.00 0.00 0.00 68 1014.6
20260905153501 27 184 11.3 22.5 0.00 0.00 0.00 69 1014.7
20260905152501 26 148 8.0 20.9 0.00 0.00 0.00 70 1014.7
20260905152003 26 241 9.7 16.1 0.00 0.00 0.00 69 1014.7
20260905151502 26 197 9.7 22.5 0.00 0.00 0.00 70 1014.8
20260905151001 26 238 12.9 22.5 0.00 0.00 0.00 70 1014.9
20260905150503 26 237 14.5 19.3 0.00 0.00 0.00 70 1014.9
20260905150004 26 133 9.7 20.9 0.00 0.00 0.00 71 1014.9
20260905145001 25 186 12.9 20.9 0.00 0.00 0.00 72 1014.7
20260905144501 25 166 11.3 17.7 0.00 0.00 0.00 73 1014.8
20260905144002 25 196 9.7 24.1 0.00 0.00 0.00 75 1014.8
20260905143502 25 216 12.9 24.1 0.00 0.00 0.00 75 1014.7
20260905143001 24 129 16.1 22.5 0.00 0.00 0.00 75 1014.7
20260905142501 24 168 8.0 22.5 0.00 0.00 0.00 75 1014.6
20260905142005 24 172 14.5 24.1 0.00 0.00 0.00 75 1014.7
20260905141505 24 137 16.1 24.1 0.00 0.00 0.00 76 1014.6
20260905141002 24 169 8.0 25.7 0.00 0.00 0.00 77 1014.6
20260905140004 23 162 12.9 22.5 0.00 0.00 0.00 77 1014.7
20260905135001 23 140 14.5 24.1 0.00 0.00 0.00 78 1014.7
20260905134500 23 160 8.0 19.3 0.00 0.00 0.00 79 1014.6
20260905134002 23 183 9.7 19.3 0.00 0.00 0.00 79 1014.6
20260905133502 23 162 12.9 22.5 0.00 0.00 0.00 79 1014.8
20260905133001 23 179 12.9 20.9 0.00 0.00 0.00 79 1014.8
20260905132501 23 191 8.0 17.7 0.00 0.00 0.00 81 1014.9
20260905132002 22 183 11.3 19.3 0.00 0.00 0.00 80 1015.0
20260905131503 22 129 9.7 19.3 0.00 0.00 0.00 81 1014.9
20260905131001 22 139 11.3 14.5 0.00 0.00 0.00 81 1014.9
20260905130502 22 160 8.0 19.3 0.00 0.00 0.00 82 1014.9
20260905130005 22 215 12.9 19.3 0.00 0.00 0.00 82 1015.0
20260905125501 22 169 11.3 16.1 0.00 0.00 0.00 83 1015.0
20260905125001 22 174 11.3 16.1 0.00 0.00 0.00 83 1015.1
20260905124500 22 136 3.2 16.1 0.00 0.00 0.00 84 1015.0
20260905124002 21 169 9.7 16.1 0.00 0.00 0.00 84 1014.9
20260905123501 21 150 4.8 11.3 0.00 0.00 0.00 85 1015.0
20260905123002 21 113 3.2 9.7 0.00 0.00 0.00 86 1014.9
20260905122501 21 153 4.8 9.7 0.00 0.00 0.00 85 1014.9
20260905122002 21 131 6.4 11.3 0.00 0.00 0.00 86 1015.0
20260905121501 21 112 6.4 11.3 0.00 0.00 0.00 86 1014.9
20260905121001 21 136 6.4 9.7 0.00 0.00 0.00 87 1014.7
20260905120501 21 135 4.8 12.9 0.00 0.00 0.00 87 1014.8
20260905115502 21 168 4.8 12.9 0.00 0.00 0.00 87 1014.6
20260905115001 21 130 6.4 16.1 0.00 0.00 0.00 87 1014.6
20260905114501 21 134 8.0 16.1 0.00 0.00 0.00 87 1014.7
20260905113502 21 134 9.7 16.1 0.00 0.00 0.00 86 1014.7
20260905113001 21 142 9.7 16.1 0.00 0.00 0.00 86 1014.8
20260905112501 21 147 9.7 16.1 0.00 0.00 0.00 86 1014.7
20260905112003 21 138 6.4 14.5 0.00 0.00 0.00 86 1014.7
20260905111512 21 138 8.0 14.5 0.00 0.00 0.00 86 1014.7
20260905111001 21 123 4.8 14.5 0.00 0.00 0.00 86 1014.7
20260905110501 21 144 6.4 12.9 0.00 0.00 0.00 86 1014.8
20260905110005 21 65 3.2 17.7 0.00 0.00 0.00 86 1014.8
20260905105001 21 151 9.7 17.7 0.00 0.00 0.00 86 1014.6
20260905104501 21 121 8.0 17.7 0.00 0.00 0.00 86 1014.8
20260905104001 21 137 4.8 14.5 0.00 0.00 0.00 85 1014.8
20260905103001 21 125 9.7 16.1 0.00 0.00 0.00 85 1014.7
20260905102502 21 128 8.0 14.5 0.00 0.00 0.00 85 1014.7
20260905102001 21 96 6.4 25.7 0.00 0.00 0.00 84 1014.8
20260905101502 22 64 6.4 25.7 0.00 0.00 0.00 83 1014.8
20260905101002 22 123 14.5 25.7 0.00 0.00 0.00 83 1014.8
20260905095502 23 153 0.0 1.6 0.00 0.00 0.00 90 1013.7
20260905095000 23 154 1.6 1.6 0.00 0.00 0.00 90 1013.7
20260905094500 23 155 0.0 1.6 0.00 0.00 0.00 90 1013.7
20260905094003 23 155 0.0 1.6 0.00 0.00 0.00 90 1013.7
20260905093500 23 219 0.0 0.0 0.00 0.00 0.00 90 1013.7
20260905093000 23 219 0.0 0.0 0.00 0.00 0.00 90 1013.8
20260905092000 23 219 0.0 0.0 0.00 0.00 0.00 89 1013.7
20260905091500 23 219 0.0 1.6 0.00 0.00 0.00 89 1013.7
20260905091002 23 219 0.0 1.6 0.00 0.00 0.00 89 1013.6
20260905090500 23 219 0.0 0.0 0.00 0.00 0.00 88 1013.5
20260905090003 24 219 0.0 1.6 0.00 0.00 0.00 88 1013.6
20260905085503 24 219 0.0 1.6 0.00 0.00 0.00 88 1013.5
20260905085001 24 219 0.0 1.6 0.00 0.00 0.00 88 1013.5
20260905084500 24 219 0.0 1.6 0.00 0.00 0.00 88 1013.5
20260905084001 24 198 0.0 0.0 0.00 0.00 0.00 88 1013.5
20260905083500 24 198 0.0 1.6 0.00 0.00 0.00 88 1013.7
20260905083001 24 198 0.0 1.6 0.00 0.00 0.00 88 1013.6
20260905082500 24 198 0.0 1.6 0.00 0.00 0.00 88 1013.5
20260905082000 24 198 0.0 1.6 0.00 0.00 0.00 88 1013.5
20260905081500 24 261 0.0 0.0 0.00 0.00 0.00 87 1013.5
20260905081001 25 261 0.0 1.6 0.00 0.00 0.00 87 1013.5
20260905080500 25 261 0.0 1.6 0.00 0.00 0.00 87 1013.4
20260905080003 25 261 0.0 1.6 0.00 0.00 0.00 87 1013.4
20260905075000 25 262 0.0 0.0 0.00 0.00 0.00 87 1013.4
20260905074500 25 262 0.0 1.6 0.00 0.00 0.00 87 1013.4
20260905074000 25 262 0.0 0.0 0.00 0.00 0.00 87 1013.3
20260905073000 25 262 1.6 3.2 0.00 0.00 0.00 85 1013.1
20260905072000 25 252 1.6 4.8 0.00 0.00 0.00 85 1013.1
20260905071500 25 259 1.6 3.2 0.00 0.00 0.00 85 1013.0
20260905071000 25 236 0.0 8.0 0.00 0.00 0.00 85 1012.9
20260905070501 25 226 3.2 8.0 0.00 0.00 0.00 86 1012.8
20260905070003 25 226 3.2 6.4 0.00 0.00 0.00 86 1012.5
20260905065501 25 206 3.2 6.4 0.00 0.00 0.00 86 1012.5
20260905065005 25 193 4.8 6.4 0.00 0.00 0.00 87 1012.5
20260905064000 25 203 3.2 6.4 0.00 0.00 0.00 87 1012.9
20260905063501 25 234 3.2 6.4 0.00 0.00 0.00 88 1012.9
20260905063001 25 195 3.2 6.4 0.00 0.00 0.00 88 1013.0
20260905062500 25 217 3.2 4.8 0.00 0.00 0.00 88 1013.2
20260905061500 25 219 1.6 3.2 0.00 0.00 0.00 89 1013.4
20260905061000 25 201 1.6 3.2 0.00 0.00 0.00 89 1013.4
20260905060004 25 165 1.6 3.2 0.00 0.00 0.00 89 1013.6
20260905055459 25 210 1.6 3.2 0.00 0.00 0.00 89 1013.7
20260905055001 25 160 1.6 3.2 0.00 0.00 0.00 89 1013.7
20260905054500 25 161 3.2 3.2 0.00 0.00 0.00 89 1013.6
20260905054001 25 165 3.2 6.4 0.00 0.00 0.00 89 1013.7
20260905053501 25 162 3.2 6.4 0.00 0.00 0.00 89 1013.7
20260905053002 25 172 3.2 6.4 0.00 0.00 0.00 89 1013.7
20260905052500 25 207 3.2 6.4 0.00 0.00 0.00 89 1013.8
20260905051503 25 167 3.2 4.8 0.00 0.00 0.00 89 1013.9
20260905051000 25 167 3.2 4.8 0.00 0.00 0.00 89 1013.9
20260905050500 25 188 3.2 4.8 0.00 0.00 0.00 88 1014.0
20260905050004 25 166 3.2 4.8 0.00 0.00 0.00 89 1014.0
20260905045505 25 221 1.6 4.8 0.00 0.00 0.00 89 1013.9
20260905045002 25 184 3.2 4.8 0.00 0.00 0.00 89 1013.9
20260905044503 25 199 3.2 4.8 0.00 0.00 0.00 89 1014.0
20260905044004 25 153 0.0 0.0 0.00 0.00 0.00 89 1014.0
20260905043504 25 158 0.0 0.0 0.00 0.00 0.00 88 1014.1
20260905043003 25 159 0.0 0.0 0.00 0.00 0.00 88 1014.1
20260905042502 25 158 0.0 0.0 0.00 0.00 0.00 88 1014.2
20260905041503 25 158 0.0 0.0 0.00 0.00 0.00 88 1014.3
20260905041002 26 158 0.0 0.0 0.00 0.00 0.00 87 1014.3
20260905040502 26 158 0.0 0.0 0.00 0.00 0.00 87 1014.3
20260905040007 26 158 0.0 0.0 0.00 0.00 0.00 86 1014.3
20260905035005 26 159 0.0 0.0 0.00 0.00 0.00 86 1014.2
20260905034502 26 159 0.0 0.0 0.00 0.00 0.00 86 1014.4
20260905034005 26 159 0.0 0.0 0.00 0.00 0.00 86 1014.3
20260905033504 26 161 0.0 0.0 0.00 0.00 0.00 86 1014.3
20260905033003 26 159 0.0 0.0 0.00 0.00 0.00 86 1014.4
20260905032503 26 166 0.0 0.0 0.00 0.00 0.00 86 1014.5
20260905032003 26 172 0.0 0.0 0.00 0.00 0.00 86 1014.5
20260905031504 26 182 0.0 1.6 0.00 0.00 0.00 86 1014.4
20260905031003 26 162 0.0 3.2 0.00 0.00 0.00 86 1014.4
20260905030503 26 161 1.6 3.2 0.00 0.00 0.00 85 1014.4
20260905030006 26 163 1.6 3.2 0.00 0.00 0.00 85 1014.3
20260905025003 27 184 0.0 1.6 0.00 0.00 0.00 84 1014.4
20260905024503 27 184 0.0 3.2 0.00 0.00 0.00 84 1014.4
20260905024003 27 184 1.6 4.8 0.00 0.00 0.00 84 1014.4
20260905023506 27 188 1.6 4.8 0.00 0.00 0.00 84 1014.3
20260905023004 27 162 3.2 6.4 0.00 0.00 0.00 84 1014.2
20260905022503 27 176 4.8 6.4 0.00 0.00 0.00 84 1014.2
20260905022003 27 165 3.2 6.4 0.00 0.00 0.00 84 1014.2
20260905021502 27 173 3.2 4.8 0.00 0.00 0.00 84 1014.2
20260905021004 27 191 3.2 4.8 0.00 0.00 0.00 83 1014.2
20260905020005 27 174 3.2 4.8 0.00 0.00 0.00 83 1014.2
20260905015503 27 169 3.2 4.8 0.00 0.00 0.00 83 1014.1
20260905015003 27 171 3.2 4.8 0.00 0.00 0.00 82 1014.2
20260905014502 27 158 3.2 4.8 0.00 0.00 0.00 82 1014.0
20260905014002 27 169 3.2 4.8 0.00 0.00 0.00 82 1014.0
20260905013502 28 164 3.2 6.4 0.00 0.00 0.00 82 1014.1
20260905013002 28 166 3.2 6.4 0.00 0.00 0.00 81 1014.0
20260905012503 28 143 3.2 6.4 0.00 0.00 0.00 81 1014.0
20260905012002 28 158 3.2 4.8 0.00 0.00 0.00 81 1013.9
20260905011501 28 152 3.2 6.4 0.00 0.00 0.00 81 1013.9
20260905011001 28 152 3.2 6.4 0.00 0.00 0.00 80 1013.9
20260905010504 28 173 4.8 8.0 0.00 0.00 0.00 80 1013.9
20260905005502 28 168 3.2 8.0 0.00 0.00 0.00 79 1013.8
20260905005003 28 146 6.4 8.0 0.00 0.00 0.00 79 1013.7
20260905004501 28 168 4.8 8.0 0.00 0.00 0.00 78 1013.8
20260905003501 28 129 1.6 4.8 0.00 0.00 0.00 77 1013.8
20260905003003 28 139 1.6 6.4 0.00 0.00 0.00 76 1013.8
20260905002501 29 146 3.2 6.4 0.00 0.00 0.00 76 1013.8
20260905001501 29 155 3.2 9.7 0.00 0.00 0.00 74 1013.8
20260905000502 30 132 4.8 9.7 0.00 0.00 0.00 73 1013.9
20260905000005 30 136 6.4 9.7 0.00 0.00 0.00 73 1013.9
20260904235502 30 136 4.8 9.7 0.00 0.00 0.00 73 1013.9
20260904234502 31 130 4.8 11.3 0.00 0.00 0.00 70 1013.8
20260904234002 31 132 4.8 11.3 0.00 0.00 0.00 69 1013.8
20260904233503 31 87 4.8 8.0 0.00 0.00 0.00 67 1013.8
20260904233002 31 144 3.2 6.4 0.00 0.00 0.00 67 1013.9
20260904232003 31 138 6.4 9.7 0.00 0.00 0.00 66 1013.8
20260904231501 32 138 4.8 9.7 0.00 0.00 0.00 66 1013.8
20260904230504 32 121 4.8 8.0 0.00 0.00 0.00 66 1013.8
20260904230004 32 138 3.2 8.0 0.00 0.00 0.00 66 1013.8
20260904225501 32 121 1.6 8.0 0.00 0.00 0.00 65 1013.8
20260904225003 33 145 3.2 6.4 0.00 0.00 0.00 64 1013.7